User: anonymous
Location: Unspecified
(0.0000°N, 0.0000°E)
Time: 21:19:08
(UTC+02:00)
Language:

Resurs 1-3 - Orbit

View from above orbital plane
View from above orbital plane
View from above satellite
View from above satellite

Ground track
Ground track

The orbit data is extracted from the following two-line orbital elements,

1 23342U 94074A   14113.67864613  .00000858  00000-0  12543-3 0  1697
2 23342 098.1666 123.0710 0001461 130.7626 003.6269 14.78335143 47739
Epoch (UTC): 23 April 2014 16:17:15
Eccentricity: 0.0001461
inclination: 98.1666°
perigee height: 633 km
apogee height: 635 km
right ascension of ascending node: 123.0710°
argument of perigee: 130.7626°
revolutions per day: 14.78335143
mean anomaly at epoch: 3.6269°
orbit number at epoch: 4773

The dashed part of the orbit path shows where the satellite is in the earth's shadow,  

DLR